This demonstration page uses our WeatherBlox Daily Observations layout. Learn more.

Left ArrowRight Arrow

Hourly Observations for February 7, 2021

Temp ( °F °C ) Dew Point ( °F °C ) Humidity (%) Winds ( mph kmh ) Pressure ( in mb ) Visibility ( mi km ) Precip ( " mm )
12:15 am 00:15 Cloudy with Light Snow 6 -14.3 3 -16.3 85 85 ESE 10 17 30.30 1026 1 2 N/A
12:35 am 00:35 Cloudy with Light Snow 6 -14.5 2 -16.5 85 85 SE 10 17 30.30 1026 2 3 N/A
12:55 am 00:55 Cloudy with Light Snow 6 -14.5 2 -16.5 85 85 ESE 13 20 30.29 1026 2 2 N/A
1:15 am 01:15 Cloudy with Light Snow 6 -14.5 2 -16.5 85 85 SE 10 17 30.29 1026 2 3 0.01 0.25
1:35 am 01:35 Cloudy with Light Snow 6 -14.5 2 -16.5 85 85 SE 9 15 30.28 1025 2 2 0.01 0.25
1:55 am 01:55 Cloudy with Light Snow 6 -14.6 2 -16.6 85 85 SE 8 13 30.28 1025 2 3 0.01 0.25
2:15 am 02:15 Cloudy with Light Snow 6 -14.7 2 -16.7 85 85 SE 8 13 30.30 1026 3 4 N/A
2:35 am 02:35 Cloudy with Light Snow 6 -14.7 2 -16.7 85 85 ESE 8 13 30.30 1026 2 3 N/A
2:55 am 02:55 Cloudy with Light Snow 5 -15 1 -17 85 85 ESE 10 17 30.29 1026 2 2 N/A
3:15 am 03:15 Cloudy with Light Snow 5 -15 1 -17 85 85 E 16 26 30.26 1025 2 3 N/A
3:35 am 03:35 Cloudy with Light Snow 5 -15.1 1 -17.2 84 84 ESE 15 24 30.26 1025 4 6 N/A
3:55 am 03:55 Cloudy 4 -15.3 1 -17.5 83 83 ESE 18 30 30.25 1024 7 11 N/A
4:15 am 04:15 Cloudy with Light Snow 4 -15.5 N/A 83 83 ESE 16 26 30.25 1024 4 6 N/A
4:35 am 04:35 Cloudy with Light Snow 4 -15.5 N/A 83 83 ESE 15 24 30.27 1025 7 11 N/A
4:55 am 04:55 Cloudy with Light Snow 4 -15.5 N/A 83 83 ESE 16 26 30.26 1025 2 3 N/A
5:15 am 05:15 Cloudy with Light Snow 4 -15.5 N/A 83 83 ESE 14 22 30.26 1025 1 2 N/A
5:35 am 05:35 Cloudy with Light Snow 4 -15.6 N/A 83 83 ESE 15 24 30.25 1024 2 3 N/A
5:55 am 05:55 Cloudy with Light Snow 4 -15.8 N/A 83 83 ESE 14 22 30.28 1025 3 4 N/A
6:15 am 06:15 Cloudy with Light Snow 3 -16 -1 -18.3 83 83 ESE 15 24 30.27 1025 2 3 N/A
6:35 am 06:35 Cloudy with Light Snow 3 -16 -1 -18.3 83 83 ESE 17 28 30.27 1025 2 3 N/A
6:55 am 06:55 Cloudy with Light Snow 3 -16.1 -1 -18.5 82 82 E 15 24 30.28 1025 3 5 N/A
7:15 am 07:15 Cloudy 2 -16.4 -2 -18.7 83 83 ESE 20 31 30.27 1025 7 11 N/A
7:35 am 07:35 Cloudy 2 -16.5 -2 -19 81 81 ESE 21 33 30.27 1025 7 11 N/A
7:55 am 07:55 Cloudy with Light Snow 2 -16.5 -2 -19 81 81 ESE 18 30 30.28 1026 3 5 N/A
8:15 am 08:15 Cloudy with Light Snow 2 -16.6 -2 -19.1 81 81 ESE 17 28 30.28 1026 3 4 N/A
8:35 am 08:35 Cloudy with Light Snow 2 -16.5 -2 -19 81 81 ESE 18 30 30.28 1026 3 5 N/A
8:55 am 08:55 Cloudy with Light Snow 3 -16.3 -2 -18.8 81 81 ESE 18 30 30.28 1025 3 4 N/A
9:15 am 09:15 Windy with Snow Likely 3 -16.2 -2 -18.8 81 81 ESE 20 31 30.30 1026 3 5 N/A
9:35 am 09:35 Cloudy with Light Snow 3 -16.2 -2 -18.7 81 81 ESE 17 28 30.29 1026 4 6 N/A
9:55 am 09:55 Cloudy with Light Snow 3 -16.2 -2 -18.8 81 81 ESE 18 30 30.29 1026 4 6 N/A
10:15 am 10:15 Cloudy with Light Snow 3 -16 -1 -18.6 81 81 ESE 17 28 30.30 1026 5 8 N/A
10:35 am 10:35 Cloudy with Light Snow 3 -16 -1 -18.6 81 81 ESE 17 28 30.30 1026 3 5 N/A
10:55 am 10:55 Windy with Snow Likely 3 -16 -1 -18.6 81 81 ESE 21 33 30.28 1025 2 3 N/A
11:15 am 11:15 Cloudy with Light Snow 4 -15.7 -1 -18.5 79 79 ESE 17 28 30.27 1025 3 5 N/A
11:35 am 11:35 Windy with Snow Likely 4 -15.6 -1 -18.5 79 79 ESE 20 31 30.25 1024 3 5 N/A
11:55 am 11:55 Cloudy with Light Snow 4 -15.6 -1 -18.5 79 79 SE 18 30 30.25 1024 3 5 N/A
12:15 pm 12:15 Cloudy with Light Snow 4 -15.5 -1 -18.3 79 79 ESE 18 30 30.25 1024 4 6 N/A
12:35 pm 12:35 Cloudy with Light Snow 4 -15.3 -1 -18.1 79 79 SE 16 26 30.23 1024 3 5 N/A
12:55 pm 12:55 Cloudy with Light Snow 4 -15.3 -1 -18.2 79 79 ESE 16 26 30.22 1023 3 5 N/A
1:15 pm 13:15 Cloudy with Light Snow 4 -15.4 -1 -18.2 79 79 ESE 17 28 30.22 1023 4 6 N/A
1:35 pm 13:35 Cloudy with Light Snow 5 -15.1 N/A 79 79 ESE 16 26 30.21 1023 5 8 N/A
1:55 pm 13:55 Cloudy with Light Snow 4 -15.3 N/A 80 80 ESE 16 26 30.19 1022 5 8 N/A
2:15 pm 14:15 Cloudy with Light Snow 5 -15.2 N/A 79 79 ESE 15 24 30.19 1022 7 11 N/A
2:35 pm 14:35 Cloudy with Light Snow 5 -15.2 N/A 79 79 ESE 13 20 30.20 1023 7 11 N/A
2:55 pm 14:55 Cloudy with Light Snow 4 -15.3 N/A 80 80 E 14 22 30.19 1022 5 8 N/A
3:15 pm 15:15 Cloudy with Light Snow 4 -15.3 N/A 80 80 ESE 14 22 30.20 1023 7 11 N/A
3:35 pm 15:35 Cloudy with Light Snow 4 -15.3 N/A 80 80 E 13 20 30.20 1023 10 16 N/A
3:55 pm 15:55 Cloudy with Light Snow 4 -15.5 N/A 81 81 E 14 22 30.20 1023 10 16 N/A
4:15 pm 16:15 Cloudy with Light Snow 4 -15.5 N/A 81 81 E 12 19 30.22 1023 10 16 N/A
4:35 pm 16:35 Cloudy with Light Snow 4 -15.6 -1 -18.2 81 81 E 10 17 30.23 1024 10 16 N/A
4:55 pm 16:55 Cloudy with Light Snow 4 -15.6 -1 -18.1 81 81 E 9 15 30.24 1024 10 16 N/A
5:15 pm 17:15 Cloudy with Light Snow 4 -15.8 -1 -18.3 81 81 E 8 13 30.25 1024 2 3 N/A
5:35 pm 17:35 Cloudy with Light Snow 3 -16 -1 -18.4 82 82 E 7 11 30.26 1025 2 3 N/A
5:55 pm 17:55 Cloudy with Light Snow 4 -15.7 -1 -18.2 81 81 ENE 9 15 30.26 1025 3 4 N/A
6:15 pm 18:15 Cloudy with Light Snow 4 -15.7 -1 -18.2 81 81 ENE 10 17 30.26 1025 10 16 N/A
6:35 pm 18:35 Cloudy with Light Snow 4 -15.8 -1 -18.3 81 81 ENE 10 17 30.28 1025 10 16 N/A
6:55 pm 18:55 Cloudy 4 -15.8 -1 -18.3 81 81 ENE 8 13 30.30 1026 10 16 N/A
7:15 pm 19:15 Cloudy 3 -15.9 -1 -18.4 81 81 NE 8 13 30.32 1027 10 16 N/A
7:35 pm 19:35 Cloudy 3 -16 -1 -18.5 81 81 NE 10 17 30.32 1027 10 16 N/A
7:55 pm 19:55 Cloudy with Light Snow 3 -16 -1 -18.5 81 81 NE 10 17 30.33 1027 10 16 N/A
8:15 pm 20:15 Cloudy with Light Snow 3 -16 -1 -18.5 81 81 NNE 10 17 30.35 1028 10 16 N/A
8:35 pm 20:35 Cloudy with Light Snow 3 -16 -1 -18.5 81 81 NNE 10 17 30.35 1028 10 16 N/A
8:55 pm 20:55 Cloudy with Light Snow 3 -16 -1 -18.5 81 81 NE 9 15 30.35 1028 10 16 N/A
9:15 pm 21:15 Cloudy with Light Snow 3 -16 -1 -18.5 81 81 NE 9 15 30.35 1028 10 16 N/A
9:35 pm 21:35 Cloudy with Light Snow 3 -16 -1 -18.5 81 81 NE 6 9 30.36 1028 10 16 N/A
9:55 pm 21:55 Cloudy with Light Snow 3 -16 -2 -18.7 80 80 NE 6 9 30.36 1028 10 16 N/A
10:15 pm 22:15 Cloudy with Light Snow 4 -15.8 -1 -18.5 80 80 NE 7 11 30.36 1028 10 16 N/A
10:35 pm 22:35 Cloudy 3 -15.9 -1 -18.5 81 81 NE 7 11 30.37 1028 10 16 N/A
10:55 pm 22:55 Cloudy with Light Snow 4 -15.7 -1 -18.5 79 79 NNE 8 13 30.38 1029 7 11 N/A
11:15 pm 23:15 Cloudy 4 -15.6 -1 -18.2 81 81 NNE 8 13 30.37 1029 10 16 N/A
11:35 pm 23:35 Cloudy 4 -15.6 -1 -18.1 81 81 N 10 17 30.36 1028 10 16 N/A
11:55 pm 23:55 Cloudy 4 -15.5 N/A 81 81 NNE 10 17 30.36 1028 10 16 N/A

Powered by AerisWeather